Location: Gimel
(45.2999°N, 1.8510°E)
Time: 07:34:23
(UTC+00:00)

Daily predictions for brighter satellites

Satellite Brightness Start Highest point End
(mag) Time Altitude Azimuth Time Altitude Azimuth Time Altitude Azimuth
SJ-6B 3.8 18:52:54 10° SE 18:56:31 31° ENE 19:00:10 10° N
STARLINK-60 3.7 18:54:30 10° SSW 18:57:30 34° SE 19:00:32 10° ENE
ATLAS 5 CENTAUR R/B 2.8 18:55:12 10° SSE 18:58:12 20° ESE 19:01:23 10° ENE
Cosmos 1606 Rocket 4.3 18:54:23 10° SSE 18:58:20 32° E 19:02:19 10° NNE
Cosmos 2074 Rocket 4.2 18:53:13 10° N 18:59:22 53° ENE 19:05:30 10° SSE
ADEOS Rocket 3.6 18:56:03 10° N 19:02:22 63° WNW 19:08:04 10° SSW
Meteor 1-16 Rocket 4.4 18:57:36 10° SSE 19:02:46 48° E 19:08:05 10° NNE
Cosmos 1818 3.6 18:57:35 10° SSW 19:02:56 65° ESE 19:08:21 10° NE
Meteor 2-15 Rocket 4.5 18:58:33 10° S 19:04:37 88° E 19:10:44 10° N
SL-8 R/B 4.4 19:00:50 10° WNW 19:05:26 49° SSW 19:10:01 10° SE
Abrixas rocket 2.8 19:05:32 10° WNW 19:08:23 43° N 19:11:15 10° ENE
ISS -1.3 19:06:29 10° W 19:08:52 18° SW 19:11:16 10° S
Cosmos 1943 Rocket 3.2 19:06:24 10° NW 19:11:44 49° WSW 19:17:04 10° S
NOSS 3-4 (A) 4.1 19:06:18 10° NNW 19:13:08 58° NE 19:20:34 10° SE
NOSS 3-4 (C) 4.1 19:06:24 10° NNW 19:13:14 57° NE 19:20:38 10° SE
Meteor 1-21 Rocket 4.3 19:07:49 10° NNW 19:13:24 85° W 19:18:56 10° S
FALCON 9 DEB 4.4 19:14:42 10° S 19:17:33 23° SE 19:20:16 11° E
SL-4 R/B 1.5 19:14:47 10° WSW 19:18:12 89° E 19:21:38 10° ENE
Cosmos 2369 Rocket 3.0 19:15:51 10° NW 19:21:23 55° WSW 19:26:51 10° S
NOSS 3-3 (A) 4.4 19:15:41 10° SW 19:21:32 66° NW 19:28:11 10° NE
NOSS 3-3 (C) 4.4 19:15:46 10° SW 19:21:37 67° NW 19:28:16 10° NE
MOS 1 4.3 19:16:25 10° SSE 19:22:03 75° ENE 19:27:43 10° NNW
Cosmos 1340 Rocket 3.7 19:19:12 10° SSE 19:22:40 28° E 19:26:09 10° NNE
MOS 1 Rocket 4.4 19:18:51 10° NNE 19:23:33 29° E 19:28:15 10° SSE
STARLINK-67 3.5 19:23:11 10° NW 19:25:34 34° NNE 19:27:10 17° E
H-2A R/B 2.1 19:20:34 10° SSE 19:25:47 90° SSW 19:30:54 10° NNW
CZ-2C R/B 4.2 19:21:38 10° NNE 19:26:03 40° E 19:30:23 10° SSE
Cosmos 1703 3.4 19:22:10 10° N 19:26:05 56° ENE 19:29:59 10° SSE
Cosmos 1328 3.9 19:22:47 10° N 19:26:45 55° E 19:30:40 10° SSE
CZ-2C R/B 2.8 19:23:40 10° SSE 19:28:33 87° ENE 19:33:21 10° NNW
Cosmos 1437 3.2 19:29:06 10° NNW 19:32:05 58° W 19:35:03 10° S
STARLINK-52 3.8 19:33:12 10° SSW 19:36:03 30° SE 19:37:28 21° E
Cosmos 1908 3.2 19:32:28 10° S 19:36:17 64° E 19:40:09 10° NNE
SL-08 RB Rocket 3.7 19:32:04 10° SSE 19:36:34 70° ENE 19:41:11 10° N
MONITOR-E 4.3 19:36:36 10° S 19:39:11 59° WSW 19:41:48 10° NNW
Resurs 1-3 3.9 19:37:16 15° SE 19:40:40 46° ENE 19:44:53 10° N
USA 234 4.0 19:38:00 10° ENE 19:43:33 29° SE 19:49:05 10° S
SeaSat 1 4.1 19:40:17 10° NNE 19:44:49 37° NW 19:49:19 10° WSW
ATLAS 2AS CENTAUR R/B 2.8 19:37:56 10° NW 19:45:35 86° NE 19:51:22 16° SE
STARLINK-1228 3.7 19:43:05 10° NW 19:45:52 38° NNE 19:47:06 25° ENE
Cosmos 1943 3.9 19:40:44 10° SW 19:46:17 57° WNW 19:51:55 10° NNE
Ariane Rocket 3.9 19:41:51 10° S 19:46:46 51° W 19:51:42 10° NNW
Cosmos 1953 4.2 19:44:18 10° SW 19:47:54 33° WNW 19:51:34 10° N
Cosmos 1140 Rocket 3.5 19:45:56 10° S 19:50:59 55° ESE 19:56:03 10° NNE
Cosmos 1726 3.7 19:47:56 10° SSW 19:51:27 39° WNW 19:54:59 10° N
Cosmos 1656 Rocket 4.1 19:49:30 10° NNW 19:55:05 61° WSW 20:00:32 10° S
Cosmos 2341 Rocket 4.3 19:49:14 10° N 19:55:28 51° ENE 19:59:56 19° SE
Cosmos 1190 Rocket 3.9 19:52:07 10° SSW 19:57:24 73° ESE 20:02:41 10° NNE
Cosmos 2058 Rocket 3.0 19:53:42 10° S 19:58:11 71° E 20:02:41 10° NNE
Spot 2 Rocket 4.5 19:56:54 23° ESE 19:58:51 30° ENE 20:03:16 10° N
Meteor 1-11 4.2 19:53:31 10° N 19:59:18 89° E 20:04:59 10° S
MetOp-A 4.1 19:55:37 12° SSE 20:00:39 85° ENE 20:06:03 10° NNW
DMSP B5D2-2 4.0 19:56:14 10° NNE 20:01:27 66° ESE 20:06:38 10° S
COSMOS 2455 3.0 19:55:48 10° NNW 20:01:47 61° NE 20:05:12 26° SE
CZ-2C R/B 2.6 19:56:59 10° NNE 20:02:05 57° E 20:07:12 10° S
Cosmos 614 Rocket 4.2 19:58:09 10° SSW 20:03:22 72° WNW 20:08:36 10° NNE
Cosmos 1726 Rocket 4.1 20:01:47 10° SSW 20:06:09 61° W 20:10:33 10° N
ARGOS 4.0 20:01:56 10° S 20:07:07 48° W 20:12:21 10° NNW
USA 186 4.1 20:06:46 10° SSW 20:09:31 23° W 20:12:11 10° NW
Cosmos 2218 Rocket 4.5 20:03:56 10° N 20:09:45 40° ENE 20:12:17 28° ESE
Resurs 01 Rocket 1.6 20:08:30 30° SSE 20:10:36 67° ENE 20:15:00 10° N
ERBS 4.0 20:08:47 10° NNW 20:11:30 22° NNE 20:12:22 20° NE
SL-24 R/B 4.2 20:09:07 10° N 20:13:10 65° WNW 20:16:52 10° SSW
BREEZE-M DEB (TANK) 2.7 20:10:29 10° W 20:14:23 41° NNW 20:15:10 30° NNE
STARLINK-1234 2.9 20:16:43 10° NW 20:19:46 66° NNE 20:19:47 66° NNE
STARLINK-1233 3.3 20:16:43 10° NW 20:19:48 51° NNE 20:19:56 51° NE
Cosmos 921 Rocket 2.8 20:15:59 10° NNW 20:20:11 86° WSW 20:21:45 38° SSE
STARLINK-1212 3.3 20:17:11 10° NW 20:20:15 51° NNE 20:20:21 51° NE
STARLINK-1105 3.3 20:17:37 10° NW 20:20:43 52° NNE 20:20:48 52° NE
STARLINK-1209 2.8 20:17:51 10° NW 20:20:51 71° NNE 20:20:51 71° NNE
STARLINK-1206 3.2 20:18:06 10° NW 20:21:10 52° NNE 20:21:13 52° NNE
STARLINK-1247 3.2 20:18:33 10° NW 20:21:37 52° NNE 20:21:39 52° NNE
STARLINK-1227 3.2 20:18:57 10° NW 20:22:03 53° NNE 20:22:06 53° NNE
STARLINK-1218 3.2 20:19:27 10° NW 20:22:31 53° NNE 20:22:31 53° NNE
Cosmos 962 Rocket 4.4 20:16:47 10° N 20:22:58 87° E 20:27:13 21° S
STARLINK-1226 3.2 20:19:53 10° NW 20:22:58 54° NNE 20:22:58 54° NNE
STARLINK-1254 3.2 20:20:19 10° NW 20:23:24 54° NNE 20:23:24 54° NNE
STARLINK-1215 3.2 20:20:48 10° NW 20:23:49 54° NNE 20:23:49 54° NNE
STARLINK-1231 3.2 20:21:14 10° NW 20:24:15 55° NNE 20:24:15 55° NNE
Cosmos 2181 Rocket 4.0 20:20:34 21° SSE 20:24:44 58° E 20:30:48 10° NNE
Cosmos 407 Rocket 4.1 20:20:03 10° SW 20:25:06 56° WNW 20:30:10 10° NNE
STARLINK-1232 3.2 20:22:09 10° NW 20:25:08 55° NNE 20:25:08 55° NNE
STARLINK-1217 3.2 20:22:36 10° NW 20:25:33 56° NNE 20:25:33 56° NNE
STARLINK-1208 3.2 20:23:01 10° NW 20:26:00 56° NNE 20:26:00 56° NNE
Cosmos 676 Rocket 3.9 20:20:53 10° SSW 20:26:10 78° ESE 20:31:26 10° NNE
SL-8 Rocket 4.0 20:19:59 10° N 20:26:16 63° ENE 20:29:12 32° SSE
BREEZE-M DEB (TANK) 3.0 20:21:34 10° WNW 20:26:22 66° SSW 20:26:31 64° S
STARLINK-1229 3.2 20:23:29 10° NW 20:26:25 56° NNE 20:26:25 56° NNE
STARLINK-1271 3.2 20:23:56 10° NW 20:26:51 56° N 20:26:51 56° N
STARLINK-1270 3.3 20:24:24 10° NW 20:27:17 56° N 20:27:17 56° N
ERS-1 Rocket 4.0 20:27:20 27° ENE 20:27:50 28° ENE 20:32:05 10° N
STARLINK-1154 3.3 20:24:51 10° NW 20:27:43 56° N 20:27:43 56° N
STARLINK-1197 3.3 20:25:45 10° NW 20:28:35 57° N 20:28:35 57° N
STARLINK-1189 3.3 20:26:12 10° NW 20:29:01 57° N 20:29:01 57° N
SPOT 3 Rocket 4.3 20:24:32 12° S 20:29:18 50° W 20:34:22 10° NNW
Cosmos 1812 Rocket 4.0 20:29:45 42° ENE 20:29:45 42° ENE 20:33:27 10° NNE
STARLINK-1198 3.3 20:26:38 10° NW 20:29:27 56° N 20:29:27 56° N
STARLINK-1188 3.3 20:27:06 10° NW 20:29:53 56° N 20:29:53 56° N
Cosmos 1461 3.5 20:25:53 10° NW 20:30:22 59° WSW 20:32:00 37° S
Cosmos 1980 Rocket 4.2 20:27:51 10° N 20:30:38 14° NE 20:32:34 12° ENE
STARLINK-1239 4.4 20:26:52 10° NW 20:30:49 42° NNE 20:31:48 35° ENE
STARLINK-1235 3.1 20:27:43 10° NW 20:30:32 66° NNW 20:30:32 66° NNW
STARLINK-1187 3.2 20:28:10 10° NW 20:30:59 62° NNW 20:30:59 62° NNW
STARLINK-29 3.1 20:28:18 10° WSW 20:31:20 71° WNW 20:31:20 71° WNW
MINOTAUR IV R/B 4.5 20:27:27 10° SSW 20:31:56 88° ESE 20:36:28 10° NNE
STARLINK-1199 3.3 20:29:01 10° NW 20:31:48 57° N 20:31:48 57° N
STARLINK-1191 3.4 20:29:29 10° NW 20:32:15 57° NNW 20:32:15 57° NNW
Cosmos 1892 3.9 20:29:15 10° N 20:32:00 30° NE 20:32:00 30° NE
STARLINK-1210 3.4 20:29:56 10° NW 20:32:40 57° NNW 20:32:40 57° NNW
STARLINK-1221 3.4 20:30:23 10° NW 20:33:07 56° NNW 20:33:07 56° NNW
SPOT 5 4.1 20:34:13 22° NE 20:34:13 22° NE 20:37:08 10° NNE
STARLINK-60 4.3 20:30:43 10° W 20:33:50 39° NNW 20:34:55 29° NNE
STARLINK-1219 3.4 20:30:49 10° NW 20:33:32 56° NNW 20:33:32 56° NNW
STARLINK-1222 3.4 20:31:16 10° NW 20:33:58 56° NNW 20:33:58 56° NNW
STARLINK-1211 3.5 20:31:44 10° NW 20:34:24 55° NNW 20:34:24 55° NNW
GRACE-FO 1 4.4 20:35:04 79° E 20:35:05 79° E 20:38:48 10° N
STARLINK-1214 3.5 20:32:11 10° NW 20:34:50 55° NNW 20:34:50 55° NNW
GRACE-FO 2 4.4 20:35:27 80° E 20:35:28 80° E 20:39:11 10° N
STARLINK-1245 3.5 20:32:40 10° NW 20:35:16 53° NNW 20:35:16 53° NNW
STARLINK-1240 4.3 20:31:51 10° NW 20:35:51 44° NNE 20:36:36 39° NE
STARLINK-1238 3.5 20:33:05 10° NW 20:35:43 54° NNW 20:35:43 54° NNW
STARLINK-1205 3.6 20:34:02 10° NW 20:36:34 52° NNW 20:36:34 52° NNW
STARLINK-1204 3.6 20:34:28 10° NW 20:36:59 52° NNW 20:36:59 52° NNW
Cosmos 220 Rocket 4.1 20:33:46 10° NNW 20:38:02 56° ENE 20:38:14 56° ENE
Cosmos 2366 rocket 4.0 20:33:03 10° N 20:39:10 62° E 20:41:05 43° SE
STARLINK-1216 4.2 20:36:51 10° NW 20:40:52 46° NNE 20:41:24 43° NE
Terra 3.3 20:42:27 22° ENE 20:42:27 22° ENE 20:45:47 10° NNE
ATLAS 5 CENTAUR R/B 2.4 20:38:14 10° WSW 20:42:19 50° NW 20:46:56 10° NNE
Cosmos 1825 4.5 20:40:06 10° NNE 20:41:04 14° NE 20:41:04 14° NE
Abrixas rocket 3.5 20:41:11 10° WNW 20:43:05 35° WNW 20:43:05 35° WNW
Cosmos 1959 Rocket 4.4 20:39:18 10° N 20:45:38 72° E 20:47:43 44° SSE
STARLINK-1237 4.1 20:41:48 10° NW 20:45:50 49° NNE 20:46:09 47° NE
Cosmos 1954 Rocket 4.2 20:44:01 10° SSW 20:49:15 71° WNW 20:54:29 10° NNE
STARLINK-1202 4.1 20:46:47 10° NW 20:50:51 51° NNE 20:50:57 51° NNE
Cosmos 2151 4.5 20:47:25 10° NNE 20:49:51 25° NE 20:49:51 25° NE
Cosmos 2058 3.0 20:47:08 10° N 20:50:47 63° NE 20:50:47 63° NE
Cosmos 192 4.2 20:46:47 10° NNW 20:51:45 70° ENE 20:52:09 66° ESE
SPOT 1/Viking Rocket 3.6 20:52:37 56° E 20:53:07 59° ENE 20:58:16 10° N
Cosmos 1300 3.6 20:52:16 33° SW 20:53:32 47° WNW 20:57:14 10° N
RESURS DK-1 3.9 20:50:21 10° N 20:53:17 25° NE 20:53:17 25° NE
Cosmos 1741 Rocket 4.4 20:54:59 46° ENE 20:54:59 46° ENE 20:59:16 10° NNE
FALCON 9 DEB 4.1 20:50:55 10° WSW 20:53:39 45° WNW 20:53:39 45° WNW
SL-4 R/B 3.2 20:54:58 10° WNW 20:58:03 31° N 20:58:16 30° N
Cosmos 1076 Rocket 3.5 20:55:02 10° N 20:59:02 78° N 20:59:02 78° N
STARLINK-1246 4.1 20:56:45 10° NW 21:00:32 56° N 21:00:32 56° N
In-Cosmos 22 Rocket 4.2 20:55:00 10° NNW 21:00:52 85° W 21:02:23 52° S
STARLINK-1203 4.0 20:57:35 10° NW 21:01:25 60° N 21:01:25 60° N
STARLINK-1224 4.1 21:01:43 10° NW 21:05:18 55° N 21:05:18 55° N
Cosmos 1833 Rocket 4.5 21:13:43 18° NE 21:13:43 18° NE 21:15:23 10° NE
Cosmos 1763 Rocket 3.4 21:05:25 10° NNW 21:10:29 70° NE 21:10:29 70° NE
STARLINK-1225 4.3 21:06:42 10° NW 21:10:06 53° NNW 21:10:06 53° NNW
STARLINK-1230 4.4 21:11:41 10° NW 21:14:53 50° NW 21:14:53 50° NW
BREEZE M DEB (TANK) 3.4 21:12:23 10° WSW 21:16:08 87° NNW 21:28:36 10° ENE
COSMOS 2406 3.6 21:21:00 49° NE 21:21:00 49° NE 21:25:18 10° NNE
Cosmos 540 Rocket 4.2 21:15:04 10° N 21:19:20 41° NE 21:19:20 41° NE
Cosmos 1821 Rocket 4.2 21:14:15 10° N 21:20:31 54° ENE 21:20:35 54° E
Cosmos 1174 4.5 21:16:39 10° NW 21:20:14 65° NW 21:20:14 65° NW
Meteor 2-10 Rocket 4.0 21:23:20 49° NE 21:23:20 49° NE 21:27:27 10° NNE
SL-08 R/B 4.3 21:18:13 10° N 21:24:23 89° W 21:25:05 72° S
Iridium 4 Rocket 3.8 21:21:16 10° NNW 21:24:45 47° NW 21:24:45 47° NW
USA 234 3.2 21:20:28 10° NE 21:27:03 87° NW 21:33:36 10° SW
USA 32 4.1 21:26:34 10° N 21:31:15 71° N 21:31:15 71° N
Cosmos 1850 Rocket 4.3 21:39:34 63° NW 21:39:34 63° NW 21:44:32 10° NNE
CZ-4C R/B 3.5 21:33:41 10° NNW 21:40:24 46° NE 21:42:00 41° ENE
Cosmos 2369 4.1 21:35:10 10° NNW 21:40:06 55° NNE 21:40:06 55° NNE
Cosmos 1697 Rocket 3.0 21:40:53 10° NNW 21:45:47 60° NNE 21:45:47 60° NNE
COSMOS 2455 4.4 21:42:28 10° NW 21:47:16 25° WSW 21:48:21 24° WSW
Resurs 01 Rocket 4.2 21:46:03 11° WSW 21:47:33 13° W 21:49:36 10° WNW
Cosmos 841 Rocket 4.0 21:42:40 10° NNW 21:46:53 57° N 21:46:53 57° N
Mayak 1.4 21:47:18 10° NNE 21:47:47 13° NNE 21:47:47 13° NNE
ATLAS CENTAUR R/B 3.7 21:51:31 10° NNW 21:52:56 20° NNW 21:52:56 20° NNW
SL-16 R/B 4.0 22:00:10 10° N 22:04:13 20° NE 22:04:13 20° NE
ERS-1 Rocket 4.2 22:07:19 37° WNW 22:07:19 37° WNW 22:11:11 10° NNW
Meteor 2-3 Rocket 4.3 22:06:40 10° N 22:11:01 53° N 22:11:01 53° N
Cosmos 2322 Rocket 4.1 22:08:40 10° N 22:12:34 20° NE 22:12:34 20° NE
Cosmos 1980 Rocket 3.0 22:10:14 10° NNW 22:14:19 46° N 22:14:19 46° N
Terra 3.4 22:21:20 32° NW 22:21:20 32° NW 22:24:10 10° NNW
Cosmos 2082 Rocket 3.6 22:45:47 33° NNE 22:45:47 33° NNE 22:48:50 10° NNE
Cosmos 1833 Rocket 4.0 22:55:21 37° NNW 22:55:21 37° NNW 22:59:33 10° NNE
Cosmos 2344 4.3 22:46:55 10° NW 22:56:38 88° NE 22:58:33 69° SE
USA 234 4.3 23:03:38 10° NE 23:09:38 40° NNW 23:15:38 10° W
Mayak 1.8 23:23:46 10° NNW 23:24:21 12° NNW 23:24:21 12° NNW
CZ-4C R/B 3.7 23:22:09 10° NW 23:27:10 44° WNW 23:27:10 44° WNW
SL-16 R/B 3.9 23:43:27 10° NNW 23:46:05 29° NNW 23:46:05 29° NNW
Cosmos 2360 Rocket 3.8 23:47:09 10° NNW 23:50:15 31° N 23:50:15 31° N
